Location: ??????
(56.0120°N, 39.1740°E)
Time: 17:19:18
(UTC+00:00)

Cosmos 1933 Rocket - Pass Details

Date: 14 April 2026
Orbit: 600 x 622 km, 82.5° (Epoch: 15 May)

Event Time Altitude Azimuth Distance (km) Brightness Sun altitude
Rises 17:30:41 0° 189° (S) 2,873 6.7 -8.7°
Reaches altitude 10° 17:32:53 10° 189° (S) 1,976 5.9 -9.0°
Maximum altitude 17:37:16 86° 104° (ESE) 628 3.5 -9.5°
Drops below altitude 10° 17:41:43 10° 13° (NNE) 2,003 6.5 -10.0°
Sets 17:43:58 0° 13° (NNE) 2,916 7.3 -10.3°
